Weather History for EGQL - July, 2013

Change the Weather History Date:

Sunday, July 14, 2013

  Actual Average Record
Temperature  
Mean Temperature 64 °F -  
Max Temperature 74 °F 63 °F 74 °F (2013)
Min Temperature 53 °F 49 °F 46 °F (2002)
Degree Days  
Heating Degree Days 2    
Growing Degree Days 14 (Base 50)    
Moisture  
Dew Point 51 °F    
Average Humidity 67    
Maximum Humidity 100    
Minimum Humidity 32    
Precipitation  
Precipitation 0.00 in - - ()
Sea Level Pressure  
Sea Level Pressure 30.20 in    
Wind  
Wind Speed 8 mph ()    
Max Wind Speed 20 mph    
Max Gust Speed -    
Visibility 7.3 miles    
Events      
Averages and records for this station are not official NWS values.
T = Trace of Precipitation, MM = Missing Value Source: Averaged Metar Reports

Daily Weather History Graph

Daily Weather History Graph

Search for Another Location

Airport or City:

Trip Planner

Search our weather history database for the weather conditions in past years. The results will help you decide how hot, cold, wet, or windy it might be!

Date:

Astronomy

Jul. 14, 2013 Rise Set
Actual Time 4:42 AM BST 9:51 PM BST
Civil Twilight 3:44 AM BST 10:48 PM BST
Nautical Twilight 1:49 AM BST 12:59 AM BST
Astronomical Twilight Sun does not set Sun does not set
Moon 12:07 PM BST (7/14) 11:27 PM BST (7/14)
Length of Visible Light 19h 04m
Length of Day
17h 08m
Waxing Crescent, 33% of the Moon is Illuminated
Jul 14
Waxing Crescent
Jul 16
First Quarter
Jul 22
Full
Jul 29
Last Quarter
Aug 6
New

Hourly Weather History & Observations

Time (BST) Temp. Dew Point Humidity Pressure Visibility Wind Dir Wind Speed Gust Speed Precip Events Conditions
12:50 AM 53 °F 52 °F 96% 30.32 in 11 mi NE 4.6 mph - -   Overcast
12:50 AM 53.6 °F 51.8 °F 94% 30.30 in 6.2 mi NE 4.6 mph - N/A   Overcast
1:50 AM 53 °F 52 °F 96% 30.31 in 11 mi NNE 2.3 mph - -   Overcast
1:50 AM 53.6 °F 51.8 °F 94% 30.30 in 6.2 mi NNE 2.3 mph - N/A   Overcast
2:50 AM 54 °F 52 °F 92% 30.29 in 11 mi NNE 3.5 mph - -   Overcast
2:50 AM 53.6 °F 51.8 °F 94% 30.27 in 6.2 mi NNE 3.5 mph - N/A   Overcast
3:50 AM 54 °F 52 °F 91% 30.29 in 11 mi North 4.6 mph - -   Overcast
3:50 AM 53.6 °F 51.8 °F 94% 30.27 in 6.2 mi North 4.6 mph - N/A   Overcast
4:50 AM 53 °F 52 °F 95% 30.27 in 6 mi NNE 3.5 mph - -   Overcast
4:50 AM 53.6 °F 51.8 °F 94% 30.27 in 6.2 mi NNE 3.5 mph - N/A   Overcast
5:50 AM 54 °F 52 °F 91% 30.26 in 6 mi North 2.3 mph - -   Overcast
5:50 AM 53.6 °F 51.8 °F 94% 30.24 in 6.2 mi North 2.3 mph - N/A   Overcast
6:50 AM 54 °F 53 °F 96% 30.26 in 2 mi WNW 3.5 mph - -   Mist
6:50 AM 53.6 °F 53.6 °F 100% 30.24 in 1.6 mi WNW 3.5 mph - N/A   Overcast
7:50 AM 56 °F 54 °F 90% 30.25 in 5 mi SW 4.6 mph - -   Overcast
7:50 AM 55.4 °F 53.6 °F 94% 30.24 in 6.2 mi SW 4.6 mph - N/A   Mostly Cloudy
8:17 AM 57.2 °F 53.6 °F 88% 30.24 in 6.2 mi WSW 5.8 mph - N/A   Mostly Cloudy
8:50 AM 59 °F 54 °F 80% 30.24 in 9 mi WSW 6.9 mph - -   Partly Cloudy
8:50 AM 59.0 °F 55.4 °F 88% 30.24 in 6.2 mi WSW 6.9 mph - N/A   Scattered Clouds
9:50 AM 63 °F 53 °F 61% 30.22 in 11 mi WSW 20.1 mph - -   Partly Cloudy
9:50 AM 62.6 °F 53.6 °F 72% 30.21 in 6.2 mi WSW 10.4 mph - N/A   Scattered Clouds
10:50 AM 64 °F 53 °F 58% 30.20 in 16 mi West 9.2 mph - -   Partly Cloudy
10:50 AM 64.4 °F 53.6 °F 68% 30.18 in 6.2 mi West 9.2 mph - N/A   Mostly Cloudy
11:50 AM 68 °F 53 °F 48% 30.18 in 19 mi West 13.8 mph - -   Scattered Clouds
11:50 AM 68.0 °F 53.6 °F 60% 30.18 in 6.2 mi West 13.8 mph - N/A   Scattered Clouds
12:50 PM 72 °F 52 °F 39% 30.17 in 22 mi West 12.7 mph - -   Scattered Clouds
12:50 PM 71.6 °F 51.8 °F 50% 30.15 in 6.2 mi West 12.7 mph - N/A   Scattered Clouds
1:50 PM 73 °F 50 °F 34% 30.15 in 28 mi West 16.1 mph - -   Scattered Clouds
1:50 PM 73.4 °F 50.0 °F 44% 30.15 in 6.2 mi West 16.1 mph - N/A   Mostly Cloudy
2:50 PM 74 °F 51 °F 33% 30.15 in 28 mi West 15.0 mph - -   Scattered Clouds
2:50 PM 73.4 °F 50.0 °F 44% 30.12 in 6.2 mi West 15.0 mph - N/A   Mostly Cloudy
3:50 PM 73 °F 49 °F 32% 30.14 in 31 mi West 18.4 mph - -   Scattered Clouds
3:50 PM 73.4 °F 50.0 °F 44% 30.12 in 6.2 mi West 18.4 mph - N/A   Mostly Cloudy
4:50 PM 73.4 °F 50.0 °F 44% 30.12 in 6.2 mi West 16.1 mph - N/A   Mostly Cloudy
5:50 PM 73 °F 49 °F 32% 30.14 in 31 mi West 17.3 mph - -   Scattered Clouds
5:50 PM 73.4 °F 50.0 °F 44% 30.12 in 6.2 mi West 17.3 mph - N/A   Scattered Clouds
6:50 PM 72 °F 50 °F 34% 30.13 in 31 mi West 15.0 mph - -   Scattered Clouds
6:50 PM 71.6 °F 50.0 °F 46% 30.12 in 6.2 mi West 15.0 mph - N/A   Scattered Clouds
7:50 PM 70 °F 50 °F 38% 30.14 in 31 mi West 16.1 mph - -   Scattered Clouds
7:50 PM 69.8 °F 50.0 °F 49% 30.12 in 6.2 mi West 16.1 mph - N/A   Partly Cloudy
8:50 PM 66 °F 49 °F 44% 30.15 in 25 mi West 12.7 mph - -   Scattered Clouds
8:50 PM 66.2 °F 50.0 °F 56% 30.12 in 6.2 mi West 12.7 mph - N/A   Scattered Clouds
9:50 PM 63 °F 49 °F 49% 30.15 in 25 mi West 16.1 mph - -   Scattered Clouds
9:50 PM 62.6 °F 48.2 °F 59% 30.15 in 6.2 mi West 16.1 mph - N/A   Partly Cloudy
10:50 PM 58 °F 49 °F 63% 30.17 in 25 mi WSW 12.7 mph - -   Scattered Clouds
10:50 PM 59.0 °F 48.2 °F 67% 30.15 in 6.2 mi WSW 12.7 mph - N/A   Partly Cloudy
11:50 PM 56 °F 48 °F 67% 30.17 in 28 mi WSW 13.8 mph - -   Scattered Clouds
11:50 PM 57.2 °F 48.2 °F 72% 30.15 in 6.2 mi WSW 13.8 mph - N/A   Partly Cloudy